Regional Weather Roundup
Issued by NWS

Home | Current Version | Previous Version | Text Only | Print | Product List | Glossary On
Versions: 1 2 3 4 5 6 7 8 9 10 11 12 13 14 15 16 17 18 19 20 21 22 23 24 25 26 27 28 29 30 31 32 33 34 35 36 37 38 39 40 41 42 43 44 45 46 47 48 49 50
000
ASUS45 KSLC 281610
RWRUT

UTAH REGIONAL WEATHER ROUNDUP
NATIONAL WEATHER SERVICE SALT LAKE CITY UT
1000 AM MDT MON JUL 28 2014

UTZ001>011-023>025-281700-

NORTHERN UTAH

CITY           SKY/WX    TMP DP  RH WIND       PRES   REMARKS
HILL AFB       CLOUDY    81  46  28 VRB7      30.25R
LOGAN          SUNNY     75  47  36 NW6       30.23S
OGDEN          CLOUDY    83  47  28 SE7       30.22R
PROVO AIRPORT  MOSUNNY   82  52  34 SE6       30.27S
SALT LAKE CITY PTSUNNY   87  48  25 S16       30.20S
VERNAL         PTSUNNY   77  46  33 SW3       30.32S
WENDOVER       PTSUNNY   82  48  30 NE6       30.19F
HEBER CITY     MOSUNNY   77  48  36 CALM      30.32F
WEST JORDAN    SUNNY     84  57  39 SE13G18   30.24S

$$

UTZ012>022-026-027-281700-

SOUTHERN UTAH

CITY           SKY/WX    TMP DP  RH WIND       PRES   REMARKS
BRYCE CANYON   PTSUNNY   67  53  61 SE10      30.50R
CEDAR CITY     CLOUDY    70  53  54 S6        30.34R
MILFORD        CLOUDY    77  52  41 S14       30.29R
MOAB/CYNLANDS  SUNNY     82  55  39 VRB5      30.27S
PRICE          PTSUNNY   76  52  43 S5        30.37S
ST GEORGE      MOSUNNY   84  55  37 NW6       30.20F
KANAB            N/A     75  55  50 W5        30.35S

$$

REGIONAL REPORTS     COLORADO/ARIZONA

CITY           SKY/WX    TMP DP  RH WIND       PRES   REMARKS
CRAIG, CO      SUNNY     71  49  45 NE3       30.40F
GRAND JUNCTION PTSUNNY   78  53  41 NW5       30.31F
RIFLE          MOSUNNY   77  49  37 VRB5      30.36F
MONTROSE       PTSUNNY   77  50  38 CALM      30.40S
CORTEZ         MOSUNNY   71  56  58 CALM      30.42R
PAGE, AZ       SUNNY     82  54  37 VRB3      30.27F
GRAND CANYON   SUNNY     71  54  54 MISG      30.45R
KINGMAN        SUNNY     85  53  33 SW3       30.21R
FLAGSTAFF      CLOUDY    68  49  50 CALM      30.48R

$$

REGIONAL REPORTS    NEVADA/IDAHO/WYOMING

CITY           SKY/WX    TMP DP  RH WIND       PRES   REMARKS
LAS VEGAS, NV  PTSUNNY   85  58  39 NE10      30.09R
ELY            CLOUDY    72  48  42 S7        30.36S
ELKO           CLOUDY    81  45  28 CALM      30.25R
POCATELLO, ID  SUNNY     73  39  29 CALM      30.22R
BURLEY         CLOUDY    72  49  44 N5        30.17R
EVANSTON, WY   PTSUNNY   72  35  25 CALM      30.44S
ROCK SPRINGS   SUNNY     77  48  35 E9        30.41F

$$



USA.gov is the U.S. government's official web portal to all federal, state and local government web resources and services.